Flag for Germany Weather past 2 weeks in Wolfsburg, Lower Saxony, Germany

Now
82 °F

Passing clouds.


Feels Like: 82 °F
Forecast: 66 / 82 °F
Wind: 9 mph from Northeast

Location: Braunschweig

Current Time: Jul 22, 2014 at 6:18:33 PM

Latest Report: Jul 22, 2014 at 5:50 PM


Visibility: N/A

Pressure: 30.04 "Hg

Humidity: 42%

Dew point: 57 °F

Location of WolfsburgLocation

Historic Weather in Wolfsburg — Graph

°F

Wolfsburg temperature yesterday

Maximum temperature yesterday: 82 °F (at 5:50 PM)
Minimum temperature yesterday: 68 °F (at 6:50 AM)
Average temperature yesterday: 76 °F

Past Weeks' High & Low Weather Summary

 TemperatureHumidityPressure
High93 °F (Jul 20, 1:50 PM)100% (Jul 8, 6:20 AM)30.21 "Hg (Jul 8, 6:20 AM)
Low55 °F (Jul 17, 5:50 AM)24% (Jul 19, 4:50 PM)29.56 "Hg (Jul 9, 9:50 AM)
Average73 °F65%29.94 "Hg
* Reported Jul 7 5:20 PM — Jul 22 5:20 PM, Wolfsburg, Weather by CustomWeather, © 2014

Note: Actual official high and low records may vary slightly from our data, if they occured in-between our weather recording intervals... More about our weather records

Advertising

Wolfsburg weather history for previous 24 hours

 ConditionsComfort  
Time TempWeatherWind HumidityBarometerVisibility
5:20 PM
Jul 22
82 °FPassing clouds.13 mph42%30.04 "HgN/A
4:50 PM84 °FPassing clouds.13 mph40%30.04 "HgN/A
4:20 PM84 °FPassing clouds.8 mph37%30.04 "HgN/A
3:50 PM84 °FPassing clouds.8 mph40%30.04 "HgN/A
3:20 PM82 °FSunny.10 mph45%30.04 "Hg10 mi
2:50 PM84 °FPassing clouds.9 mph45%30.04 "HgN/A
2:20 PM82 °FBroken clouds.8 mph48%30.04 "HgN/A
1:50 PM79 °FScattered clouds.8 mph54%30.04 "HgN/A
1:20 PM81 °FPassing clouds.9 mph54%30.04 "HgN/A
12:50 PM77 °FPassing clouds.8 mph57%30.04 "HgN/A
12:20 PM77 °FPassing clouds.9 mph57%30.04 "HgN/A
11:50 AM73 °FPassing clouds.7 mph65%30.04 "HgN/A
11:20 AM72 °FPassing clouds.7 mph69%30.04 "HgN/A
10:50 AM70 °FScattered clouds.5 mph73%30.04 "HgN/A
10:20 AM68 °FScattered clouds.8 mph83%30.04 "HgN/A
9:50 AM66 °FOvercast.8 mph83%30.04 "HgN/A
9:20 AM64 °FOvercast.7 mph88%30.04 "HgN/A
8:50 AM64 °FOvercast.8 mph88%30.04 "HgN/A
8:20 AM64 °FLow clouds.7 mph88%30.04 "HgN/A
7:50 AM64 °FLow clouds.6 mph94%30.04 "HgN/A
7:20 AM63 °FLow clouds.7 mph100%30.01 "HgN/A
6:50 AM63 °FLow clouds.6 mph94%30.01 "HgN/A
9:20 PM
Jul 21
77 °FPassing clouds.9 mph54%29.89 "HgN/A
8:50 PM77 °FPassing clouds.9 mph54%29.89 "HgN/A
8:20 PM79 °FPassing clouds.12 mph51%29.89 "HgN/A
7:50 PM81 °FPassing clouds.8 mph51%29.89 "HgN/A
7:20 PM81 °FPassing clouds.9 mph51%29.86 "HgN/A
6:50 PM81 °FPassing clouds.8 mph51%29.86 "HgN/A
6:20 PM81 °FPassing clouds.8 mph51%29.86 "HgN/A
Weather by CustomWeather, © 2014

See weather overviewHow to use our weather pages